| time (UTC) | temp C | wind direction | speed KPH | gust KPH | rain 1hr cm | rain 24hr cm | rain mn cm | humidity % | barometer mb |
| 20260508084528 | 11 | 42 | 12.9 | 16.1 | 0.00 | 1.09 | 0.00 | 80 | 1015.3 |
| 20260508083031 | 12 | 21 | 12.9 | 14.5 | 0.00 | 1.09 | 0.00 | 79 | 1015.2 |
| 20260508081527 | 11 | 5 | 9.7 | 14.5 | 0.00 | 1.09 | 0.00 | 81 | 1015.1 |
| 20260508080035 | 11 | 331 | 9.7 | 14.5 | 0.00 | 1.09 | 0.00 | 81 | 1015.2 |
| 20260508074535 | 12 | 330 | 8.0 | 12.9 | 0.00 | 1.60 | 0.00 | 81 | 1015.3 |
| 20260508073026 | 12 | 308 | 8.0 | 16.1 | 0.00 | 1.60 | 0.00 | 80 | 1015.3 |
| 20260508071528 | 12 | 317 | 9.7 | 16.1 | 0.00 | 1.60 | 0.00 | 80 | 1015.3 |
| 20260508070029 | 12 | 326 | 9.7 | 14.5 | 0.00 | 1.60 | 0.00 | 80 | 1015.3 |
| 20260508064526 | 12 | 322 | 11.3 | 16.1 | 0.00 | 1.80 | 0.00 | 80 | 1015.2 |
| 20260508063027 | 12 | 296 | 11.3 | 16.1 | 0.00 | 1.80 | 0.00 | 80 | 1015.1 |
| 20260508061529 | 13 | 310 | 9.7 | 14.5 | 0.00 | 1.80 | 0.00 | 81 | 1015.1 |
| 20260508060029 | 13 | 318 | 8.0 | 14.5 | 0.00 | 1.80 | 0.00 | 80 | 1015.2 |
| 20260508054527 | 13 | 309 | 9.7 | 12.9 | 0.00 | 2.41 | 0.00 | 80 | 1015.2 |
| 20260508053026 | 13 | 285 | 9.7 | 12.9 | 0.00 | 2.41 | 0.00 | 81 | 1015.3 |
| 20260508051527 | 13 | 293 | 8.0 | 12.9 | 0.00 | 2.41 | 0.00 | 82 | 1015.3 |
| 20260508050029 | 13 | 288 | 8.0 | 11.3 | 0.00 | 2.41 | 0.00 | 81 | 1015.3 |
| 20260508044530 | 13 | 309 | 6.4 | 12.9 | 0.00 | 2.95 | 0.00 | 80 | 1015.2 |
| 20260508043026 | 13 | 284 | 8.0 | 11.3 | 0.00 | 2.95 | 0.00 | 79 | 1015.0 |
| 20260508041534 | 13 | 294 | 6.4 | 11.3 | 0.00 | 2.95 | 0.00 | 80 | 1015.0 |
| 20260508040030 | 13 | 292 | 6.4 | 11.3 | 0.00 | 2.95 | 0.00 | 80 | 1014.8 |
| 20260508034528 | 14 | 298 | 6.4 | 11.3 | 0.00 | 2.97 | 2.95 | 79 | 1014.9 |
| 20260508033035 | 14 | 286 | 6.4 | 11.3 | 0.00 | 2.97 | 2.95 | 78 | 1014.7 |
| 20260508031526 | 15 | 282 | 8.0 | 12.9 | 0.00 | 2.97 | 2.95 | 76 | 1014.9 |
| 20260508030037 | 15 | 294 | 8.0 | 12.9 | 0.00 | 2.97 | 2.95 | 76 | 1014.7 |
| 20260508024528 | 15 | 309 | 8.0 | 12.9 | 0.00 | 2.97 | 2.95 | 75 | 1014.7 |
| 20260508023039 | 15 | 300 | 8.0 | 12.9 | 0.00 | 2.97 | 2.95 | 74 | 1014.4 |
| 20260508021533 | 15 | 313 | 6.4 | 16.1 | 0.00 | 2.97 | 2.95 | 74 | 1014.1 |
| 20260508020028 | 16 | 313 | 11.3 | 19.3 | 0.00 | 2.97 | 2.95 | 73 | 1014.1 |
| 20260508014533 | 16 | 320 | 11.3 | 17.7 | 0.00 | 3.17 | 2.95 | 72 | 1013.9 |
| 20260508013027 | 16 | 311 | 9.7 | 19.3 | 0.00 | 3.17 | 2.95 | 70 | 1013.7 |
| 20260508011527 | 16 | 327 | 9.7 | 16.1 | 0.00 | 3.17 | 2.95 | 70 | 1013.4 |
| 20260508010039 | 17 | 323 | 11.3 | 24.1 | 0.00 | 3.17 | 2.95 | 69 | 1013.2 |
| 20260508004531 | 17 | 355 | 14.5 | 22.5 | 0.00 | 5.89 | 2.95 | 69 | 1012.9 |
| 20260508003029 | 17 | 329 | 16.1 | 24.1 | 0.00 | 5.89 | 2.95 | 68 | 1012.7 |
| 20260508001534 | 17 | 318 | 11.3 | 22.5 | 0.00 | 5.89 | 2.95 | 68 | 1012.7 |
| 20260508000031 | 18 | 313 | 19.3 | 30.6 | 0.00 | 5.89 | 2.95 | 66 | 1012.1 |
| 20260507234534 | 18 | 300 | 14.5 | 30.6 | 0.00 | 5.92 | 2.95 | 65 | 1011.8 |
| 20260507233028 | 19 | 306 | 17.7 | 35.4 | 0.00 | 5.92 | 2.95 | 64 | 1011.8 |
| 20260507231527 | 20 | 311 | 17.7 | 30.6 | 0.00 | 5.92 | 2.95 | 63 | 1011.6 |
| 20260507230030 | 20 | 355 | 11.3 | 29.0 | 0.00 | 5.92 | 2.95 | 64 | 1011.4 |
| 20260507224547 | 21 | 284 | 25.7 | 38.6 | 0.00 | 5.92 | 2.95 | 62 | 1011.0 |
| 20260507223029 | 21 | 303 | 22.5 | 37.0 | 0.00 | 5.92 | 2.95 | 61 | 1010.9 |
| 20260507221535 | 22 | 297 | 25.7 | 38.6 | 0.00 | 5.92 | 2.95 | 62 | 1010.6 |
| 20260507220032 | 22 | 275 | 19.3 | 40.2 | 0.00 | 5.92 | 2.95 | 63 | 1010.5 |
| 20260507214534 | 22 | 301 | 22.5 | 37.0 | 0.00 | 5.92 | 2.95 | 63 | 1010.1 |
| 20260507213035 | 22 | 272 | 25.7 | 41.8 | 0.00 | 5.92 | 2.95 | 63 | 1010.3 |
| 20260507211527 | 22 | 304 | 20.9 | 35.4 | 0.00 | 5.92 | 2.95 | 65 | 1010.1 |
| 20260507210049 | 22 | 290 | 19.3 | 38.6 | 0.00 | 5.92 | 2.95 | 66 | 1010.1 |
| 20260507204528 | 22 | 278 | 19.3 | 37.0 | 0.00 | 5.92 | 2.95 | 66 | 1009.9 |
| 20260507203028 | 22 | 275 | 25.7 | 41.8 | 0.00 | 5.92 | 2.95 | 64 | 1010.1 |
| 20260507201535 | 23 | 263 | 20.9 | 38.6 | 0.00 | 5.92 | 2.95 | 64 | 1009.7 |
| 20260507200047 | 23 | 281 | 16.1 | 38.6 | 0.00 | 5.92 | 2.95 | 65 | 1009.9 |
| 20260507194526 | 23 | 264 | 22.5 | 38.6 | 0.00 | 5.92 | 2.95 | 64 | 1009.9 |
| 20260507193059 | 23 | 284 | 27.4 | 40.2 | 0.00 | 5.92 | 2.95 | 66 | 1010.2 |
| 20260507191530 | 23 | 327 | 12.9 | 25.7 | 0.00 | 5.92 | 2.95 | 70 | 1010.3 |
| 20260507190033 | 22 | 285 | 14.5 | 27.4 | 0.00 | 5.92 | 2.95 | 71 | 1010.4 |
| 20260507184529 | 22 | 324 | 12.9 | 27.4 | 0.00 | 5.92 | 2.95 | 73 | 1010.7 |
| 20260507183037 | 22 | 302 | 17.7 | 32.2 | 0.00 | 5.92 | 2.95 | 72 | 1010.7 |
| 20260507181528 | 22 | 267 | 16.1 | 29.0 | 0.00 | 5.92 | 2.95 | 75 | 1010.7 |
| 20260507180028 | 22 | 274 | 19.3 | 32.2 | 0.00 | 5.92 | 2.95 | 74 | 1010.8 |
| 20260507174528 | 22 | 281 | 14.5 | 22.5 | 0.00 | 5.92 | 2.95 | 77 | 1010.7 |
| 20260507173027 | 21 | 273 | 16.1 | 22.5 | 0.00 | 5.92 | 2.95 | 78 | 1010.7 |
| 20260507171526 | 21 | 302 | 9.7 | 24.1 | 0.00 | 5.92 | 2.95 | 81 | 1010.6 |
| 20260507170028 | 21 | 321 | 9.7 | 22.5 | 0.00 | 5.92 | 2.95 | 84 | 1010.7 |
| 20260507164526 | 20 | 340 | 12.9 | 20.9 | 0.00 | 5.97 | 2.95 | 86 | 1010.6 |
| 20260507163030 | 20 | 298 | 6.4 | 16.1 | 0.00 | 5.97 | 2.95 | 88 | 1010.9 |
| 20260507161530 | 19 | 229 | 6.4 | 16.1 | 0.00 | 5.97 | 2.95 | 91 | 1010.9 |
| 20260507160053 | 19 | 239 | 9.7 | 16.1 | 0.00 | 5.97 | 2.95 | 94 | 1011.4 |
| 20260507154528 | 18 | 259 | 9.7 | 17.7 | 0.00 | 5.97 | 2.95 | 96 | 1011.3 |
| 20260507153027 | 18 | 244 | 3.2 | 16.1 | 0.00 | 5.97 | 2.95 | 98 | 1011.2 |
| 20260507151530 | 17 | 259 | 4.8 | 16.1 | 0.00 | 5.97 | 2.95 | 98 | 1011.3 |
| 20260507150027 | 17 | 281 | 8.0 | 17.7 | 0.00 | 5.97 | 2.95 | 98 | 1011.5 |
| 20260507144541 | 17 | 270 | 8.0 | 19.3 | 0.00 | 5.97 | 2.95 | 98 | 1012.0 |
| 20260507143032 | 17 | 259 | 8.0 | 16.1 | 0.00 | 5.97 | 2.95 | 98 | 1011.8 |
| 20260507141530 | 17 | 253 | 8.0 | 12.9 | 0.00 | 5.97 | 2.95 | 98 | 1011.2 |
| 20260507140033 | 16 | 204 | 4.8 | 8.0 | 0.03 | 5.97 | 2.95 | 98 | 1011.0 |
| 20260507134526 | 17 | 0 | 0.0 | 0.0 | 0.10 | 5.97 | 2.95 | 98 | 1010.8 |
| 20260507133027 | 16 | 0 | 0.0 | 0.0 | 0.25 | 5.97 | 2.95 | 98 | 1011.0 |
| 20260507131530 | 16 | 0 | 0.0 | 11.3 | 0.30 | 5.97 | 2.95 | 98 | 1011.2 |
| 20260507130031 | 16 | 0 | 0.0 | 11.3 | 0.25 | 5.92 | 2.90 | 98 | 1011.6 |
| 20260507124527 | 16 | 293 | 1.6 | 6.4 | 0.20 | 5.89 | 2.84 | 98 | 1011.8 |
| 20260507123038 | 16 | 325 | 3.2 | 14.5 | 0.08 | 5.74 | 2.67 | 98 | 1011.6 |
| 20260507121527 | 16 | 56 | 4.8 | 9.7 | 0.15 | 5.69 | 2.64 | 98 | 1010.6 |
| 20260507120027 | 16 | 198 | 1.6 | 3.2 | 0.28 | 5.69 | 2.64 | 98 | 1010.9 |
| 20260507114529 | 16 | 0 | 0.0 | 8.0 | 0.46 | 5.69 | 2.64 | 98 | 1011.3 |
| 20260507113030 | 16 | 134 | 1.6 | 9.7 | 0.46 | 5.64 | 2.59 | 98 | 1010.4 |
| 20260507111536 | 16 | 45 | 4.8 | 16.1 | 0.38 | 5.54 | 2.49 | 98 | 1010.8 |
| 20260507110033 | 16 | 37 | 11.3 | 19.3 | 0.23 | 5.36 | 2.34 | 98 | 1011.6 |
| 20260507104528 | 16 | 24 | 4.8 | 8.0 | 0.10 | 5.21 | 2.16 | 98 | 1011.4 |
| 20260507100033 | 16 | 32 | 1.6 | 4.8 | 0.10 | 5.16 | 2.11 | 98 | 1011.2 |
| 20260507094531 | 16 | 355 | 3.2 | 9.7 | 0.05 | 5.11 | 2.06 | 98 | 1011.1 |
| 20260507093040 | 16 | 285 | 4.8 | 9.7 | 0.03 | 5.05 | 2.01 | 98 | 1011.6 |